Fargo, ND

5:01 PM CDT on March 26, 2017 (GMT -0500)
Hector International

Weather History for KFAR - August, 2013

Change the Weather History Date:

Saturday, August 24, 2013

  Actual Average Record
Temperature  
Mean Temperature 85 °F 68 °F  
Max Temperature 95 °F 80 °F 100 °F (1948)
Min Temperature 74 °F 56 °F 38 °F (1887)
Degree Days  
Heating Degree Days 0 2  
Month to date heating degree days 17 21  
Since 1 June heating degree days 96 110  
Since 1 July heating degree days 34 37  
Cooling Degree Days 20 4  
Month to date cooling degree days 109 141  
Year to date cooling degree days 517 481  
Since 1 June cooling degree days 488 450  
Growing Degree Days 34 (Base 50)    
Moisture  
Dew Point 69 °F    
Average Humidity 64    
Maximum Humidity 84    
Minimum Humidity 44    
Precipitation  
Precipitation 0.00 in 0.10 in 1.41 in (1995)
Month to date precipitation 0.25 1.91  
Year to date precipitation 21.78 15.41  
Snow  
Snow 0.00 in 0.00 in 0.00 in ()
Month to date snowfall 0.0 0.0  
Since 1 June snowfall 0.0 0.0  
Since 1 July snowfall 0.0 0.0  
Snow Depth 0.00 in    
Sea Level Pressure  
Sea Level Pressure 29.79 in    
Wind  
Wind Speed 16 mph (SSE)    
Max Wind Speed 26 mph    
Max Gust Speed 36 mph    
Visibility 10 miles    
Events      
T = Trace of Precipitation, MM = Missing Value Source: NWS Daily Summary

Daily Weather History Graph

Daily Weather History Graph

Search for Another Location

Airport or City:

Trip Planner

Search our weather history database for the weather conditions in past years. The results will help you decide how hot, cold, wet, or windy it might be!

Date:

Astronomy

Aug. 24, 2013 Rise Set
Actual Time 6:36 AM CDT 8:21 PM CDT
Civil Twilight 6:04 AM CDT 8:53 PM CDT
Nautical Twilight 5:24 AM CDT 9:32 PM CDT
Astronomical Twilight 4:41 AM CDT 10:15 PM CDT
Moon 9:55 PM CDT (8/24) 10:57 AM CDT (8/24)
Length of Visible Light 14h 49m
Length of Day
13h 44m
Waning Gibbous, 84% of the Moon is Illuminated
Aug 24
Waning Gibbous
Aug 28
Last Quarter
Sep 5
New
Sep 12
First Quarter
Sep 19
Full

Hourly Weather History & Observations

Time (CDT) Temp. Heat Index Dew Point Humidity Pressure Visibility Wind Dir Wind Speed Gust Speed Precip Events Conditions
12:53 AM 77.0 °F - 69.1 °F 76% 29.88 in 10.0 mi SSE 16.1 mph 27.6 mph N/A   Clear
1:53 AM 77.0 °F - 69.1 °F 76% 29.88 in 10.0 mi SSE 15.0 mph 25.3 mph N/A   Scattered Clouds
2:53 AM 75.9 °F - 69.1 °F 79% 29.87 in 10.0 mi SSE 13.8 mph 21.9 mph N/A   Clear
3:53 AM 75.0 °F - 69.1 °F 82% 29.86 in 10.0 mi SSE 16.1 mph 23.0 mph N/A   Clear
4:53 AM 75.0 °F - 68.0 °F 79% 29.86 in 10.0 mi SSE 16.1 mph 21.9 mph N/A   Clear
5:53 AM 73.9 °F - 68.0 °F 82% 29.85 in 9.0 mi SSE 16.1 mph 24.2 mph N/A   Clear
6:53 AM 73.9 °F - 68.0 °F 82% 29.84 in 8.0 mi SSE 15.0 mph 26.5 mph N/A   Clear
7:53 AM 75.0 °F - 68.0 °F 79% 29.84 in 8.0 mi SSE 16.1 mph 25.3 mph N/A   Clear
8:53 AM 78.1 °F - 69.1 °F 74% 29.83 in 9.0 mi SSE 18.4 mph 26.5 mph N/A   Clear
9:53 AM 80.1 °F 82.9 °F 69.1 °F 69% 29.82 in 10.0 mi SSE 19.6 mph 29.9 mph N/A   Clear
10:53 AM 82.9 °F 86.5 °F 69.1 °F 63% 29.79 in 10.0 mi SSE 18.4 mph 26.5 mph N/A   Clear
11:53 AM 86.0 °F 90.1 °F 69.1 °F 57% 29.79 in 10.0 mi South 20.7 mph 32.2 mph N/A   Clear
12:53 PM 89.1 °F 93.7 °F 69.1 °F 52% 29.77 in 10.0 mi South 19.6 mph 26.5 mph N/A   Clear
1:53 PM 91.0 °F 95.6 °F 69.1 °F 48% 29.75 in 10.0 mi South 18.4 mph 28.8 mph N/A   Partly Cloudy
2:53 PM 93.0 °F 97.9 °F 69.1 °F 45% 29.74 in 10.0 mi South 20.7 mph 28.8 mph N/A   Clear
3:53 PM 93.9 °F 98.6 °F 68.0 °F 43% 29.72 in 10.0 mi South 21.9 mph 27.6 mph N/A   Clear
4:53 PM 93.9 °F 98.6 °F 68.0 °F 43% 29.71 in 10.0 mi South 16.1 mph 27.6 mph N/A   Clear
5:53 PM 93.0 °F 97.4 °F 68.0 °F 44% 29.71 in 10.0 mi SSW 18.4 mph 28.8 mph N/A   Clear
6:53 PM 91.0 °F 96.6 °F 70.0 °F 50% 29.72 in 10.0 mi South 16.1 mph 24.2 mph N/A   Clear
7:53 PM 89.1 °F 95.0 °F 71.1 °F 55% 29.71 in 10.0 mi South 10.4 mph - N/A   Clear
8:53 PM 87.1 °F 92.8 °F 71.1 °F 59% 29.71 in 10.0 mi SSE 8.1 mph - N/A   Clear
9:53 PM 86.0 °F 91.5 °F 71.1 °F 61% 29.73 in 10.0 mi SSE 9.2 mph - N/A   Clear
10:53 PM 84.0 °F 89.6 °F 72.0 °F 67% 29.74 in 10.0 mi South 11.5 mph - N/A   Clear
11:53 PM 82.9 °F 88.8 °F 73.0 °F 72% 29.75 in 10.0 mi South 11.5 mph - N/A   Clear